Retour au catalogue

STARLINK-4618

ActifCommunicationsVLEO
NORAD 53735·PAYLOAD·🇺🇸 United States

Lancé Sep 5, 2022 depuis Cape Canaveral Space Force Station

Loading…

Prochains Passages (prochaines 24 heures)

TLE

FraisSource: CelesTrak SupGP

Époque: Sep 15, 2026, 02:53 UTC

1 53735C 22107AM  26258.12062500  .00033910  00000+0  10021-2 0  2583
2 53735  53.1577 118.5811 0001250  80.4773  80.1298 15.34366548    19

Suivez STARLINK-4618 en temps réel avec AllMySat

Download on the App Store